Flag for United Kingdom Weather past 2 weeks in Exeter, England, United Kingdom

Now
50 °F

Clear.


Feels Like: 48 °F
Forecast: 47 / 66 °F
Wind: 6 mph from Northwest

Location: Exeter Airport

Current Time: May 25, 2015 at 1:38:15 AM

Latest Report: May 24, 2015 at 11:20 PM


Visibility: 10 mi

Pressure: 30.15 "Hg

Humidity: 88%

Dew point: 46 °F

Location of ExeterLocation

Historic Weather in Exeter — Graph

°F

Exeter temperature yesterday

Maximum temperature yesterday: 64 °F (at 5:20 PM)
Minimum temperature yesterday: 48 °F (at 1:50 AM)
Average temperature yesterday: 57 °F

Past Weeks' High & Low Weather Summary

 TemperatureHumidityPressure
High70 °F (May 23, 4:50 PM)100% (May 10, 5:20 AM)30.42 "Hg (May 10, 5:20 AM)
Low36 °F (May 13, 5:20 AM)43% (May 11, 2:50 PM)29.65 "Hg (May 18, 10:20 AM)
Average54 °F77%30.11 "Hg
* Reported May 9 11:50 PM — May 24 11:20 PM, Exeter, Weather by CustomWeather, © 2015

Note: Actual official high and low records may vary slightly from our data, if they occured in-between our weather recording intervals... More about our weather records

Advertising

Exeter weather history for previous 24 hours

 ConditionsComfort  
Time TempWeatherWind HumidityBarometerVisibility
11:20 PM
Sun, May 24
50 °FClear.6 mph88%30.15 "Hg10 mi
10:20 PM52 °FPassing clouds.6 mph88%30.12 "HgN/A
9:50 PM54 °FPassing clouds.7 mph82%30.12 "HgN/A
9:20 PM54 °FPassing clouds.8 mph82%30.12 "HgN/A
8:50 PM57 °FPassing clouds.9 mph77%30.12 "HgN/A
8:20 PM59 °FPassing clouds.10 mph77%30.12 "HgN/A
7:50 PM61 °FPassing clouds.14 mph72%30.12 "HgN/A
7:20 PM61 °FPassing clouds.12 mph83%30.12 "HgN/A
6:50 PM63 °FScattered clouds.9 mph83%30.12 "HgN/A
6:20 PM61 °FScattered clouds.8 mph88%30.12 "HgN/A
5:50 PM63 °FPartly sunny.10 mph83%30.12 "HgN/A
5:20 PM64 °FPartly sunny.9 mph78%30.12 "HgN/A
4:50 PM63 °FPartly sunny.9 mph83%30.09 "HgN/A
4:20 PM61 °FPartly sunny.10 mph83%30.12 "HgN/A
3:50 PM61 °FPartly sunny.12 mph83%30.12 "HgN/A
3:20 PM61 °FPartly sunny.9 mph83%30.12 "HgN/A
2:50 PM61 °FPartly sunny.10 mph83%30.12 "HgN/A
2:20 PM61 °FScattered showers. Partly sunny.10 mph83%30.12 "HgN/A
1:50 PM63 °FPartly sunny.9 mph77%30.12 "HgN/A
1:20 PM61 °FPartly sunny.5 mph83%30.12 "HgN/A
12:50 PM61 °FPartly sunny.8 mph88%30.12 "HgN/A
12:20 PM61 °FPartly sunny.6 mph83%30.15 "HgN/A
11:50 AM61 °FPartly sunny.2 mph83%30.15 "HgN/A
11:20 AM59 °FScattered showers. Partly sunny.7 mph88%30.15 "HgN/A
10:50 AM59 °FScattered showers. Partly sunny.6 mph82%30.15 "HgN/A
10:20 AM57 °FPartly sunny.1 mph88%30.15 "HgN/A
9:50 AM57 °FPartly sunny.3 mph82%30.15 "HgN/A
9:20 AM55 °FSleet. Partly sunny.3 mph88%30.15 "HgN/A
8:50 AM54 °FSleet. Partly sunny.2 mph94%30.15 "HgN/A
8:20 AM52 °FPartly sunny.3 mph100%30.15 "Hg4 mi
7:50 AM52 °FPartly sunny.3 mph94%30.15 "Hg4 mi
7:20 AM52 °FPartly sunny.2 mph94%30.15 "Hg4 mi
6:50 AM50 °FPartly sunny.2 mph100%30.15 "Hg4 mi
6:20 AM50 °FPartly sunny.3 mph94%30.15 "Hg4 mi
5:50 AM50 °FPassing clouds.2 mph94%30.18 "HgN/A
5:20 AM48 °FPassing clouds.3 mph100%30.18 "Hg4 mi
1:50 AM48 °FClear.2 mph94%30.21 "Hg10 mi
1:20 AM50 °FClear.3 mph88%30.21 "Hg10 mi
Weather by CustomWeather, © 2015

See weather overviewHow to use our weather pages